WetterOnline ( https://www.wetteronline.de )

Wetter aktuell Greifswald

Aktuelles Wetter: Greifswald (6m)

6-stündlich | Neueste Meldungen
Ortszeit Temperatur Wetter
Di, 18.06. 14:00 21.0° C leicht bewölkt
Di, 18.06. 8:00 16.7° C bewölkt
Di, 18.06. 2:00 15.0° C wolkig
Mo, 17.06. 20:00 18.4° C wolkig
Mo, 17.06. 14:00 21.4° C leichter Regen
Mo, 17.06. 8:00 18.9° C leicht bewölkt
Mo, 17.06. 2:00 15.7° C bedeckt
So, 16.06. 20:00 19.4° C bedeckt
Ortszeit Temperatur Wetter
Di, 18.06. 19:30 18.0° C bedeckt
Di, 18.06. 19:20 18.0° C bedeckt
Di, 18.06. 19:10 18.1° C bedeckt
Di, 18.06. 19:00 18.5° C bedeckt
Di, 18.06. 18:50 18.5° C bedeckt
Di, 18.06. 18:40 18.8° C bedeckt
Di, 18.06. 18:30 19.1° C bedeckt
Di, 18.06. 18:00 19.2° C bedeckt
Di, 18.06. 17:30 19.7° C wolkig
Di, 18.06. 17:00 19.6° C bewölkt
Di, 18.06. 16:30 20.0° C bewölkt
Ortszeit Relative Feuchte Sichtweite
Di, 18.06. 14:00 60% >70 km
Di, 18.06. 8:00 84% 50 km
Di, 18.06. 2:00 90% 50 km
Mo, 17.06. 20:00 80% 50 km
Mo, 17.06. 14:00 59% 55 km
Mo, 17.06. 8:00 68% 50 km
Mo, 17.06. 2:00 86% 55 km
So, 16.06. 20:00 67% 60 km
Ortszeit Relative Feuchte Sichtweite
Di, 18.06. 19:30 74% 55 km
Di, 18.06. 19:20 74% -
Di, 18.06. 19:10 74% -
Di, 18.06. 19:00 74% 50 km
Di, 18.06. 18:50 74% -
Di, 18.06. 18:40 73% -
Di, 18.06. 18:30 72% 50 km
Di, 18.06. 18:00 73% 45 km
Di, 18.06. 17:30 70% 40 km
Di, 18.06. 17:00 71% 50 km
Di, 18.06. 16:30 67% 60 km
Ortszeit Niederschlagsmenge Niederschlagsart
Di, 18.06. 14:00 0.0 l/m2 in 6 Std. -
Di, 18.06. 8:00 0.3 l/m2 in 12 Std. -
Di, 18.06. 2:00 0.2 l/m2 in 6 Std. Regen
Mo, 17.06. 20:00 2 l/m2 in 12 Std. Regen
Mo, 17.06. 14:00 0.1 l/m2 in 6 Std. Regen
Mo, 17.06. 8:00 0.1 l/m2 in 12 Std. Regen
Mo, 17.06. 2:00 0.1 l/m2 in 6 Std. Regen
So, 16.06. 20:00 0.2 l/m2 in 12 Std. Regen
Ortszeit Niederschlagsmenge Niederschlagsart
Di, 18.06. 19:30 0.0 l/m2 in 30 Min -
Di, 18.06. 19:20 keine Meldung -
Di, 18.06. 19:10 keine Meldung -
Di, 18.06. 19:00 0.0 l/m2 in 1 Std. -
Di, 18.06. 18:50 keine Meldung -
Di, 18.06. 18:40 keine Meldung -
Di, 18.06. 18:30 0.0 l/m2 in 30 Min -
Di, 18.06. 18:00 0.0 l/m2 in 1 Std. -
Di, 18.06. 17:30 0.0 l/m2 in 30 Min -
Di, 18.06. 17:00 0.0 l/m2 in 1 Std. -
Di, 18.06. 16:30 0.0 l/m2 in 30 Min -
Ortszeit Stärke Spitze Richtung
km/h Bft. km/h Grad Sektor
Di, 18.06. 14:00 13 3 22 40° NO
Di, 18.06. 8:00 13 3 19 260° W
Di, 18.06. 2:00 4 1 25 200° S
Mo, 17.06. 20:00 4 1 54 30° NO
Mo, 17.06. 14:00 13 3 26 260° W
Mo, 17.06. 8:00 7 2 13 160° S
Mo, 17.06. 2:00 4 1 - 300° NW
So, 16.06. 20:00 4 1 36 150° SO
Ortszeit Stärke Spitze Richtung
km/h Bft. km/h Grad Sektor
Di, 18.06. 19:30 11 2 22 70° O
Di, 18.06. 19:20 11 2 - 70° O
Di, 18.06. 19:10 11 2 - 70° O
Di, 18.06. 19:00 13 3 37 70° O
Di, 18.06. 18:50 13 3 - 70° O
Di, 18.06. 18:40 13 3 - 70° O
Di, 18.06. 18:30 11 2 36 70° O
Di, 18.06. 18:00 15 3 26 60° NO
Di, 18.06. 17:30 14 3 25 60° NO
Di, 18.06. 17:00 13 3 26 50° NO
Di, 18.06. 16:30 11 2 25 60° NO
Ortszeit Untergrenze Bedeckung Gattung
total tief tief mittel hoch
Di, 18.06. 14:00 1290 m 3/8 1/8 - - -
Di, 18.06. 8:00 1290 m 7/8 7/8 - - -
Di, 18.06. 2:00 2100 m 8/8 1/8 - - -
Mo, 17.06. 20:00 2100 m 7/8 4/8 - - -
Mo, 17.06. 14:00 1350 m 8/8 8/8 - - -
Mo, 17.06. 8:00 2100 m 2/8 1/8 - - -
Mo, 17.06. 2:00 1800 m 8/8 8/8 - - -
So, 16.06. 20:00 3000 m 8/8 8/8 - - -
Ortszeit Bedeckungsgrad in Achtel und Wolkenuntergrenze
Di, 18.06. 19:30 8(2700m)
Di, 18.06. 19:20 8(2700m)
Di, 18.06. 19:10 8
Di, 18.06. 19:00 8(3000m) 8(3600m)
Di, 18.06. 18:50 8(3000m) 8(3600m)
Di, 18.06. 18:40 8
Di, 18.06. 18:30 7(3300m) 8(5100m) 8(6300m)
Di, 18.06. 18:00 3(3300m) 8(5100m)
Di, 18.06. 17:30 1(1500m) 4(2100m) 7(5400m)
Di, 18.06. 17:00 5(1800m) 7(2100m)
Di, 18.06. 16:30 5(1500m) 7(2100m)
Ortszeit Luftdruck NN (hPa) Tendenz (hPa in 3 Std.)
Di, 18.06. 14:00 1016 - 0,4
Di, 18.06. 8:00 1015 + 1,3
Di, 18.06. 2:00 1014 + 0,6
Mo, 17.06. 20:00 1013 + 0,2
Mo, 17.06. 14:00 1012 + 0,5
Mo, 17.06. 8:00 1011 + 0,4
Mo, 17.06. 2:00 1011 + 0,4
So, 16.06. 20:00 1009 + 0,1
Ortszeit Luftdruck NN (hPa) Tendenz (hPa in 3 Std.)
Di, 18.06. 19:30 1013 - 1,6
Di, 18.06. 19:20 1013 keine Meldung
Di, 18.06. 19:10 1014 keine Meldung
Di, 18.06. 19:00 1014 - 1,5
Di, 18.06. 18:50 1014 keine Meldung
Di, 18.06. 18:40 1014 keine Meldung
Di, 18.06. 18:30 1014 - 1,2
Di, 18.06. 18:00 1014 - 1,0
Di, 18.06. 17:30 1015 - 0,8
Di, 18.06. 17:00 1015 - 0,7
Di, 18.06. 16:30 1015 - 0,8
Ortszeit Schneehöhe (cm)
Di, 18.06. 14:00 0
Di, 18.06. 8:00 0
Di, 18.06. 2:00 0
Mo, 17.06. 20:00 0
Mo, 17.06. 14:00 0
Mo, 17.06. 8:00 0
Mo, 17.06. 2:00 0
So, 16.06. 20:00 0
Ortszeit Schneehöhe (cm)
Di, 18.06. 19:30 0
Di, 18.06. 19:20 0
Di, 18.06. 19:10 -
Di, 18.06. 19:00 0
Di, 18.06. 18:50 0
Di, 18.06. 18:40 -
Di, 18.06. 18:30 0
Di, 18.06. 18:00 0
Di, 18.06. 17:30 0
Di, 18.06. 17:00 0
Di, 18.06. 16:30 0
Link zu dieser Seite / Seite empfehlen

Das Wetter in ...